パンスターズ彗星

C/2015 V4 ( PanSTARRS )

English version
Home page
Updated on March 3, 2018

---------------------------------------------------------------------

・ プロフィール

発見日 2015年11月3日
発見光度 20.4等
発見者 Pan-STARRS 1 telescope (Haleakala)

・ 写真集

・ 軌道要素

Epoch 2016 Sept. 9.0 TT = JDT 2457640.5
T 2016 Aug. 28.23669 TT                                 MPCW
q   5.4594889            (2000.0)            P               Q
n   0.01234124     Peri.  306.93197     -0.60015503     -0.79988213
a  18.5451459      Node   179.89579     +0.63675959     -0.47656093
e   0.7056109      Incl.   60.75157     -0.48409829     +0.36479894
P  79.86
From 79 observations 2015 Nov. 3-2017 Mar. 26, mean residual 0".5.

・ 光度変化

        m1 = 8.3 + 5 logΔ + 10.0 log r

---------------------------------------------------------------------

軌道要素はM.P.E.C. 2017-J52に掲載されたものです。
光度グラフはComet for Windowsで作成したものです。

---------------------------------------------------------------------

Copyright(C) Seiichi Yoshida (comet@aerith.net). All rights reserved.